Hyannis, MA

3:13 PM EDT on July 25, 2016 (GMT -0400)
Barnstable Municipal-Boardman-Polando Field

Weather History for KHYA - September, 2014

Change the Weather History Date:

Monday, September 29, 2014

  Actual Average Record
Temperature  
Mean Temperature 70 °F -  
Max Temperature 75 °F 67 °F 80 °F (1948)
Min Temperature 63 °F 50 °F 26 °F (1957)
Cooling Degree Days 4    
Growing Degree Days 20 (Base 50)    
Moisture  
Dew Point 63 °F    
Average Humidity 86    
Maximum Humidity 93    
Minimum Humidity 69    
Precipitation  
Precipitation 0.00 in - - ()
Sea Level Pressure  
Sea Level Pressure 29.96 in    
Wind  
Wind Speed 6 mph (West)    
Max Wind Speed 9 mph    
Max Gust Speed -    
Visibility 9 miles    
Events      
Averages and records for this station are not official NWS values.
T = Trace of Precipitation, MM = Missing Value Source: NWS Daily Summary

Daily Weather History Graph

Daily Weather History Graph

Search for Another Location

Airport or City:

Trip Planner

Search our weather history database for the weather conditions in past years. The results will help you decide how hot, cold, wet, or windy it might be!

Date:

Astronomy

Sep. 29, 2014 Rise Set
Actual Time 6:35 AM EDT 6:26 PM EDT
Civil Twilight 6:08 AM EDT 6:53 PM EDT
Nautical Twilight 5:35 AM EDT 7:26 PM EDT
Astronomical Twilight 5:03 AM EDT 7:58 PM EDT
Moon 11:48 AM EDT (9/29) 9:54 PM EDT (9/29)
Length of Visible Light 12h 45m
Length of Day
11h 50m
Waxing Crescent, 27% of the Moon is Illuminated
Sep 29
Waxing Crescent
Oct 1
First Quarter
Oct 8
Full
Oct 15
Last Quarter
Oct 23
New

Hourly Weather History & Observations

Time (EDT) Temp. Dew Point Humidity Pressure Visibility Wind Dir Wind Speed Gust Speed Precip Events Conditions
12:56 AM 64.9 °F 61.0 °F 87% 30.00 in 10.0 mi SW 6.9 mph - N/A   Clear
1:56 AM 64.9 °F 62.1 °F 90% 29.99 in 10.0 mi SW 9.2 mph - N/A   Clear
2:56 AM 64.9 °F 62.1 °F 90% 29.97 in 10.0 mi WSW 9.2 mph - N/A   Clear
3:56 AM 64.9 °F 62.1 °F 90% 29.96 in 10.0 mi WSW 8.1 mph - N/A   Clear
4:56 AM 64.9 °F 62.1 °F 90% 29.96 in 10.0 mi SW 8.1 mph - N/A   Clear
5:56 AM 64.9 °F 62.1 °F 90% 29.96 in 10.0 mi SW 8.1 mph - N/A   Clear
6:56 AM 64.9 °F 63.0 °F 93% 29.96 in 10.0 mi Calm Calm - N/A   Clear
7:56 AM 66.0 °F 63.0 °F 90% 29.97 in 10.0 mi SW 8.1 mph - N/A   Clear
8:56 AM 68.0 °F 64.0 °F 87% 29.97 in 10.0 mi SW 6.9 mph - N/A   Clear
9:56 AM 72.0 °F 64.0 °F 76% 29.97 in 10.0 mi West 8.1 mph - N/A   Clear
10:56 AM 71.1 °F 64.9 °F 81% 29.96 in 10.0 mi SSW 6.9 mph - N/A   Clear
11:56 AM 73.0 °F 66.0 °F 79% 29.96 in 10.0 mi SW 8.1 mph - N/A   Clear
12:56 PM 73.9 °F 66.0 °F 76% 29.95 in 10.0 mi SSW 9.2 mph - N/A   Clear
1:56 PM 73.9 °F 64.9 °F 73% 29.94 in 10.0 mi South 5.8 mph - N/A   Clear
2:56 PM 73.9 °F 64.0 °F 71% 29.93 in 10.0 mi SW 6.9 mph - N/A   Clear
3:56 PM 75.0 °F 64.0 °F 69% 29.93 in 10.0 mi Variable 3.5 mph - N/A   Clear
4:56 PM 70.0 °F 61.0 °F 73% 29.94 in 10.0 mi NNW 4.6 mph - N/A   Clear
5:56 PM 68.0 °F 61.0 °F 78% 29.95 in 10.0 mi NW 4.6 mph - N/A   Clear
6:38 PM 66.0 °F 62.1 °F 87% 29.95 in 10.0 mi NW 4.6 mph - N/A   Mostly Cloudy
6:45 PM 64.9 °F 62.1 °F 90% 29.95 in 10.0 mi NNW 3.5 mph - N/A   Scattered Clouds
6:56 PM 64.9 °F 62.1 °F 90% 29.96 in 10.0 mi Calm Calm - N/A   Partly Cloudy
7:56 PM 64.9 °F 61.0 °F 87% 29.96 in 9.0 mi Calm Calm - N/A   Partly Cloudy
8:20 PM 64.9 °F 62.1 °F 90% 29.95 in 8.0 mi NNW 4.6 mph - N/A   Mostly Cloudy
8:36 PM 64.9 °F 62.1 °F 90% 29.97 in 7.0 mi Calm Calm - N/A   Scattered Clouds
8:56 PM 64.0 °F 62.1 °F 93% 29.96 in 6.0 mi North 4.6 mph - N/A   Partly Cloudy
9:16 PM 64.9 °F 62.1 °F 90% 29.96 in 7.0 mi North 5.8 mph - N/A   Mostly Cloudy
9:56 PM 64.9 °F 62.1 °F 90% 29.97 in 5.0 mi North 3.5 mph - N/A   Overcast
10:56 PM 64.0 °F 62.1 °F 93% 29.99 in 4.0 mi WNW 4.6 mph - N/A   Overcast
11:15 PM 64.0 °F 62.1 °F 93% 29.98 in 1.8 mi NNW 8.1 mph - N/A   Overcast
11:56 PM 63.0 °F 61.0 °F 93% 29.97 in 1.2 mi North 5.8 mph - N/A   Overcast